Location: Unspecified
(0.0000°N, 0.0000°E)
Time: 01:37:31
(UTC+00:00)

Explorer 11/Cluster Stage 4 - Pass Details

Date: 26 November 2019
Orbit: 467 x 1259 km, 28.8° (Epoch: 11 December)

Event Time Altitude Azimuth Distance (km) Brightness Sun altitude
Exits shadow 03:58:18 11° 229° (SW) 3,181 9.4 -25.3°
Maximum altitude 04:01:51 14° 203° (SSW) 2,908 9.5 -24.5°
Drops below altitude 10° 04:05:42 10° 174° (S) 3,150 10.0 -23.6°
Sets 04:10:14 0° 150° (SSE) 3,999 11.0 -22.5°
